Location: ?????????
(41.1143°N, 22.7905°E)
Time: 02:41:42
(UTC+00:00)

Okean 1 - Pass Details

Date: 13 December 2025
Orbit: 465 x 483 km, 82.5° (Epoch: 24 January)

Event Time Altitude Azimuth Distance (km) Brightness Sun altitude
Rises 15:49:59 0° 153° (SSE) 2,531 6.7 -9.1°
Reaches altitude 10° 15:52:30 10° 135° (SE) 1,652 5.5 -9.6°
Maximum altitude 15:55:06 19° 89° (E) 1,196 4.5 -10.0°
Enters shadow 15:56:47 14° 55° (NE) 1,406 4.8 -10.3°
